Location: Bridgewater Hill Observatory
(43.5992°N, 72.6989°W)
Time: 10:53:39
(UTC-05:00)

Daily predictions for brighter satellites

Satellite Brightness Start Highest point End
(mag) Time Altitude Azimuth Time Altitude Azimuth Time Altitude Azimuth
METEOR-M 4.4 17:50:00 10° SE 17:55:05 46° ENE 18:00:10 10° N
Cosmos 1825 4.4 17:52:04 10° SW 17:55:27 30° WNW 17:58:51 10° NNW
FREGAT/IRIS 3.8 17:55:21 10° SE 17:57:54 24° ENE 18:00:30 10° NNE
NOAA 12 4.3 17:54:11 10° SE 17:59:19 51° ENE 18:04:28 10° N
Okean 3 3.8 17:57:50 10° NNW 18:02:08 72° W 18:06:23 10° S
SL-8 R/B 4.1 17:57:23 10° WNW 18:02:11 67° SSW 18:06:59 10° SE
GEOS 3 Rocket 4.3 17:57:22 10° NE 18:02:14 37° ESE 18:07:05 10° S
ALOS 3.1 18:01:12 10° SE 18:05:11 29° ENE 18:09:11 10° N
Cosmos 1238 Rocket 4.3 18:06:41 10° ENE 18:07:12 10° ENE 18:07:24 10° ENE
Meteor 1-14 Rocket 4.4 18:02:18 10° S 18:08:13 71° E 18:14:11 10° NNE
SJ-6B 3.3 18:05:03 10° SE 18:08:50 40° ENE 18:12:35 10° N
Spot 2 Rocket 4.4 18:07:11 10° ESE 18:11:26 28° ENE 18:15:42 10° N
Cosmos 2082 Rocket 3.9 18:08:54 10° WSW 18:14:01 34° NW 18:19:11 10° N
Cosmos 1484 Rocket 4.4 18:12:08 10° S 18:15:54 41° W 18:19:40 10° NNW
Cosmos 1461 3.5 18:12:25 10° NNW 18:16:08 35° NE 18:19:53 10° ESE
SL-16 R/B 2.3 18:11:28 10° NNW 18:17:05 58° ENE 18:22:39 10° SE
CENTAUR R/B 3.4 18:11:27 10° NW 18:19:17 73° WSW 18:27:36 10° SSE
Meteor 1-20 Rocket 4.3 18:18:14 10° S 18:23:54 59° E 18:29:40 10° NNE
Helios 1A 4.3 18:25:25 15° E 18:27:11 19° ENE 18:30:11 10° NNE
Cosmos 1633 3.8 18:26:34 10° SE 18:29:27 22° E 18:32:20 10° NE
NOSS 2-2 (E) 3.9 18:26:34 10° SW 18:30:38 66° NW 18:35:28 10° NNE
Cosmos 1975 Rocket 3.8 18:26:58 10° NNW 18:31:12 56° W 18:35:25 10° S
Cosmos 44 Rocket 3.9 18:26:55 10° NW 18:31:36 58° WSW 18:36:11 10° SSE
HJ-1C 3.7 18:28:42 10° SE 18:31:55 42° ENE 18:35:08 10° N
Cosmos 2322 Rocket 2.1 18:30:55 10° NNW 18:36:34 83° ENE 18:42:11 10° SSE
Okean 1 3.3 18:32:43 10° N 18:36:45 60° E 18:40:45 10° SSE
Cosmos 1340 3.2 18:36:28 10° N 18:40:00 36° ENE 18:43:10 12° SE
SL-19 R/B 4.4 18:35:15 10° SE 18:40:44 58° ENE 18:46:34 10° N
Nadezhda 1 Rocket 4.2 18:37:48 10° NNW 18:43:54 74° W 18:49:56 10° S
Cosmos 2322 4.3 18:40:10 10° N 18:45:28 37° NE 18:48:38 21° ESE
CZ-2D R/B 3.8 18:47:17 24° ESE 18:48:52 35° ENE 18:52:23 10° N
Tiangong 2 1.3 18:46:53 10° W 18:49:55 58° SSW 18:50:56 35° SE
Cosmos 1536 Rocket 3.5 18:45:34 10° N 18:50:02 72° E 18:54:30 10° SSE
Cosmos 1818 3.8 18:45:24 10° S 18:50:36 49° ESE 18:54:45 16° NE
NOSS 2-2 (D) 4.4 18:46:39 10° SW 18:50:39 51° NW 18:55:23 10° NNE
Meteor 1-25 Rocket 4.4 18:45:52 10° SSW 18:51:26 74° W 18:57:08 10° N
Cosmos 2181 Rocket 4.0 18:45:56 10° N 18:52:04 58° E 18:58:14 10° SSE
Resurs 01 Rocket 1.5 18:48:32 10° SSE 18:52:54 65° ENE 18:57:17 10° N
DNEPR-1 R/B 3.5 18:50:02 10° NW 18:54:19 80° WSW 18:58:10 12° SSE
Helios 1B rocket 4.1 18:56:57 18° SE 18:56:57 18° SE 18:58:18 10° SSE
Meteor 2-4 Rocket 4.2 18:50:05 10° N 18:55:16 36° ENE 18:58:03 23° ESE
COSMOS 2428 3.7 18:51:14 10° N 18:55:55 26° NE 18:56:56 24° ENE
Meteor 1-11 Rocket 3.9 18:54:35 10° SSE 19:00:05 49° E 19:05:43 10° NNE
Cosmos 44 4.1 18:56:12 10° NW 19:00:28 45° WSW 19:04:34 10° S
H-2A R/B 2.5 18:58:39 11° SSE 19:02:11 68° ENE 19:05:55 10° N
FENGYUN 3A 3.7 18:57:41 10° SSE 19:03:06 85° WSW 19:08:34 10° NNW
DELTA 2 R/B (1) 3.9 18:57:47 10° W 19:03:17 57° S 19:05:58 29° ESE
Cosmos 2237 Rocket 4.1 19:07:54 10° NNE 19:10:17 14° NE 19:10:17 14° NE
Cosmos 1570 Rocket 4.4 19:09:04 10° N 19:13:58 39° ENE 19:14:21 38° ENE
Cosmos 807 4.4 19:10:38 10° N 19:13:59 71° E 19:15:04 44° SSE
Cosmos 2184 Rocket 4.3 19:08:55 10° SSE 19:14:46 41° E 19:20:35 10° NNE
Cosmos 676 Rocket 3.9 19:11:06 10° SSW 19:16:16 86° ESE 19:21:31 10° NNE
Cosmos 2074 Rocket 4.2 19:10:32 10° SSE 19:16:22 44° E 19:22:16 10° NNE
Cosmos 407 Rocket 3.8 19:11:30 10° SSW 19:16:42 67° WNW 19:22:00 10° NNE
Cosmos 1709 Rocket 4.0 19:11:49 10° S 19:18:04 81° W 19:24:17 10° N
Cosmos 1023 Rocket 4.4 19:13:50 10° S 19:18:47 55° ESE 19:21:03 31° NE
Resurs 1-3 3.7 19:16:12 10° S 19:20:35 77° WSW 19:24:59 10° NNW
USA 186 4.4 19:25:49 12° N 19:25:49 12° N 19:26:01 10° N
Cosmos 1300 Rocket 3.5 19:21:06 10° S 19:25:30 87° W 19:29:58 10° N
ATLAS 2A CENTAUR R/B 4.4 19:27:19 10° S 19:29:11 12° SSE 19:29:17 12° SSE
Cosmos 2360 Rocket 2.1 19:24:28 10° NNW 19:30:10 87° ENE 19:32:44 34° SSE
SAR-Lupe-1 4.4 19:33:09 60° NW 19:33:09 60° NW 19:36:13 10° NNW
Cosmos 2219 Rocket 3.4 19:29:41 10° N 19:33:20 26° NNE 19:33:20 26° NNE
Cosmos 1602 4.2 19:31:00 10° SSW 19:34:48 59° W 19:38:40 10° N
Cosmos 2208 Rocket 4.1 19:30:12 10° NNW 19:35:31 55° ENE 19:35:31 55° ENE
SAR-Lupe-4 4.1 19:36:34 54° WSW 19:36:47 55° W 19:40:19 10° NNW
Cosmos 2285 Rocket 4.3 19:30:55 10° N 19:37:04 44° ENE 19:37:06 44° ENE
SL-16 R/B 4.5 19:39:17 10° NNE 19:39:22 10° NNE 19:39:22 10° NNE
ALOS 4.0 19:38:23 10° SSW 19:42:32 31° W 19:46:43 10° NNW
Cosmos 1238 Rocket 4.4 19:44:32 10° NNW 19:46:37 25° WNW 19:46:37 25° WNW
Cosmos 1140 Rocket 3.4 19:42:20 10° SSW 19:47:28 83° WNW 19:49:25 39° NNE
Cosmos 1833 4.3 19:42:11 10° SSW 19:47:53 77° WNW 19:51:45 21° NNE
Cosmos 2333 Rocket 3.5 19:46:46 10° N 19:50:09 27° NNE 19:50:09 27° NNE
Okean 1 Rocket 3.6 19:47:59 10° SSW 19:52:24 59° W 19:56:51 10° N
Okean 1-7 Rocket 4.3 19:57:44 10° NNW 20:01:49 54° WNW 20:01:49 54° WNW
Helios 1A 4.2 20:02:04 38° WSW 20:02:30 39° W 20:06:26 10° NNW
Envisat 3.5 20:07:28 52° NNW 20:07:28 52° NNW 20:11:19 10° NNW
USA 229 DEB 3.8 20:03:25 10° NNW 20:10:23 65° NE 20:10:23 65° NE
USA 229 3.8 20:03:31 10° NNW 20:10:27 64° NE 20:10:27 64° NE
USA 215 4.4 20:23:42 30° NNE 20:24:04 30° NNE 20:29:34 10° NW
COSMOS 2428 3.7 20:34:59 10° NNW 20:39:00 42° WNW 20:39:00 42° WNW
Cosmos 2237 Rocket 4.2 20:50:12 10° NNW 20:52:08 22° NNW 20:52:08 22° NNW
Cosmos 2219 Rocket 4.4 21:13:17 10° NW 21:15:05 20° NW 21:15:05 20° NW
